Regional Weather Roundup
Issued by NWS

Home | Current Version | Previous Version | Text Only | Print | Product List | Glossary On
Versions: 1 2 3 4 5 6 7 8 9 10 11 12 13 14 15 16 17 18 19 20 21 22 23 24 25 26 27 28 29 30 31 32 33 34 35 36 37 38 39 40 41 42 43 44 45 46 47 48 49 50
000
ASUS43 KIND 230409
RWRIN

WEATHER ROUNDUP FOR INDIANA
NATIONAL WEATHER SERVICE INDIANAPOLIS IN
1200 AM EDT SUN JUL 23 2017

NOTE: "FAIR" INDICATES FEW OR NO CLOUDS BELOW 12,000 FEET WITH NO
SIGNIFICANT WEATHER AND/OR OBSTRUCTIONS TO VISIBILITY.

* - STATION DOES NOT REPORT WEATHER SUCH AS PRECIPITATION OR FOG.

+ - STATION NOT QUALITY CONTROLLED BY THE NATIONAL WEATHER SERVICE.
    USE DATA WITH CAUTION...ESPECIALLY DEWPOINT AND RELATIVE
    HUMIDITY OBSERVATIONS.

INZ001>003-010>013-019-020-230500-
NORTHWEST INDIANA

CITY           SKY/WX    TMP DP  RH WIND       PRES   REMARKS
GARY /AIRPORT/ CLEAR     75  70  85 NE3       29.82S
KNOX *+        CLEAR     70  70 100 CALM      29.81F
LA PORTE +     CLEAR     71  69  94 CALM      29.83S
MICHIGAN CITY+ MOCLDY    68  68 100 CALM      29.83S
MONTICELLO +   PTCLDY    75  74  95 CALM      29.80S
RENSSELAER +   PTCLDY    73  72  94 CALM      29.81S
VALPARAISO     CLEAR     73  71  93 NE5       29.82F

$$

LMZ046-743>745-230500-
SOUTHERN LAKE MICHIGAN

STATION/POSITION TIME  TEMP    WIND        PRES    WAVE
                       AIR SEA DIR/SP/G            HT
                 (UTC) (F)     (DEG/KT/KT) (MB)    (FT)
BURNS HARBOR     0340   74      80/  4/  5 1010.2F
MICHIGAN CITY    0340   73      60/  4/  4   N/A
5NW MICH CITY    0400   74 75   90/  4/  4   N/A     1

$$

INZ004-005-014>016-021>024-230500-
NORTH CENTRAL INDIANA

CITY           SKY/WX    TMP DP  RH WIND       PRES   REMARKS
GOSHEN         CLEAR     71  67  87 N5        29.82F
LOGANSPORT +   CLEAR     72  72 100 CALM      29.82F
PERU/GRISSOM   CLEAR     74  74  98 CALM      29.81
ROCHESTER +    PTCLDY    73  72  94 CALM      29.82F
SOUTH BEND     CLEAR     70  68  93 CALM      29.82F
WARSAW +       CLEAR     70  70 100 CALM      29.83S

$$

INZ006>009-017-018-025>027-230500-
NORTHEAST INDIANA

CITY           SKY/WX    TMP DP  RH WIND       PRES   REMARKS
AUBURN +       CLEAR     72  68  88 CALM      29.83S
FORT WAYNE     PTCLDY    74  70  87 W3        29.83S
HUNTINGTON +   MOCLDY    72  71  96 CALM      29.83S
KENDALLVILLE + CLEAR     70  68  95 CALM      29.84S

$$

INZ028-029-035-036-043>045-051>053-230500-
WEST CENTRAL INDIANA

CITY           SKY/WX    TMP DP  RH WIND       PRES   REMARKS
GREENCASTLE +  LGT RAIN  77  73  88 S3        29.83F
LAFAYETTE      CLOUDY    75  75 100 W3        29.81S
TERRE HAUTE    TSTM      73  68  84 SE13      29.82S

$$

INZ030>032-037>040-046>048-054>057-064-065-230500-
CENTRAL INDIANA

CITY           SKY/WX    TMP DP  RH WIND       PRES   REMARKS
CP ATTERBURY + TSTM      73  72  94 S5        29.84
FRANKFORT +    CLOUDY    77  76  95 CALM      29.85S
GREENWOOD *+   CLOUDY   N/A N/A N/A S9        29.84F
INDIANAPOLIS   TSTM      78  75  90 S9        29.83R
-EAGLE CREEK   CLOUDY    81  73  76 S5        29.84R
KOKOMO +       CLEAR     74  72  93 SE5       29.83F
MARION +       PTCLDY    73  72  94 CALM      29.84S
MT COMFORT *+  CLOUDY    77  73  88 S6        29.85S
SHELBYVILLE    CLOUDY    77  72  84 CALM      29.83F
ZIONSVILLE +   MOCLDY    75  74  99 S5        29.85S

$$

INZ033-034-041-042-049-050-058-059-230500-
EAST CENTRAL INDIANA

CITY           SKY/WX    TMP DP  RH WIND       PRES   REMARKS
MUNCIE         CLOUDY    76  71  85 CALM      29.82F
RICHMOND +     CLOUDY    73  72  94 SW12      29.86S

$$

INZ060-061-067>069-081>083-085>088-230500-
SOUTHWEST INDIANA

CITY           SKY/WX    TMP DP  RH WIND       PRES   REMARKS
EVANSVILLE     PTCLDY    86  73  65 SW12      29.83F
HUNTINGBURG *+ PTCLDY    83  74  74 S10       29.84F

$$

INZ062-063-066-070>080-084-089>092-230500-
SOUTH CENTRAL AND SOUTHEAST INDIANA

CITY           SKY/WX    TMP DP  RH WIND       PRES   REMARKS
BEDFORD +      MOCLDY    82  73  74 CALM      29.85R
BLOOMINGTON    CLOUDY    78  75  90 SE5       29.84S
MADISON *+     CLOUDY    79  73  83 NE6       29.87F
NORTH VERNON + CLOUDY    73  72  94 E6        29.86F
SEYMOUR +      CLOUDY    77  72  83 E3        29.83F

$$




USA.gov is the U.S. government's official web portal to all federal, state and local government web resources and services.